Location: Antioch Church
(34.9543°N, 88.5145°W)
Time: 12:02:38
(UTC+00:00)

Okean O Rocket - Pass Details

Date: 11 December 2019
Orbit: 624 x 644 km, 98.2° (Epoch: 25 January)

Event Time Altitude Azimuth Distance (km) Brightness Sun altitude
Rises 11:10:47 0° 17° (NNE) 2,929 5.1 -20.1°
Reaches altitude 10° 11:13:01 10° 21° (NNE) 2,021 4.3 -19.6°
Maximum altitude 11:17:21 58° 100° (E) 745 2.2 -18.8°
Drops below altitude 10° 11:21:41 10° 180° (S) 2,019 4.4 -17.9°
Sets 11:23:54 0° 184° (S) 2,926 5.2 -17.5°
